Weather History for Key West, FL

Change the Weather History Date:

Tuesday, November 6, 2012

  Actual Average Record
Temperature  
Mean Temperature 75 °F 77 °F  
Max Temperature 80 °F 81 °F 88 °F (1948)
Min Temperature 69 °F 73 °F 58 °F (1910)
Degree Days  
Heating Degree Days 0 0  
Month to date heating degree days 0 0  
Since 1 July heating degree days 0 0  
Cooling Degree Days 10 12  
Month to date cooling degree days 57 75  
Year to date cooling degree days 4393 4283  
Growing Degree Days 24 (Base 50)    
Moisture  
Dew Point 67 °F    
Average Humidity 79    
Maximum Humidity 90    
Minimum Humidity 67    
Precipitation  
Precipitation 0.00 in 0.08 in 3.00 in (1919)
Month to date precipitation 0.01 0.58  
Year to date precipitation 46.21 35.89  
Snow  
Snow 0.00 in - - ()
Month to date snowfall 0.0  
Since 1 July snowfall 0.0  
Since 1 September snowfall 0.0  
Snow Depth 0.00 in    
Sea Level Pressure  
Sea Level Pressure 29.92 in    
Wind  
Wind Speed 4 mph (WNW)    
Max Wind Speed 10 mph    
Max Gust Speed 15 mph    
Visibility 10 miles    
Events      
T = Trace of Precipitation, MM = Missing Value Source: NWS Daily Summary

Daily Weather History Graph

Daily Weather History Graph

Search for Another Location

Airport:

Trip Planner

Search our weather history database for the weather conditions in past years. The results will help you decide how hot, cold, wet, or windy it might be!

Date:

Astronomy

Nov. 06, 2012 Rise Set
Actual Time 6:37 AM EST 5:43 PM EST
Civil Twilight 6:13 AM EST 6:07 PM EST
Nautical Twilight 5:46 AM EST 6:34 PM EST
Astronomical Twilight 5:19 AM EST 7:01 PM EST
Moon No Moon Rise 12:33 PM EST (11/6)
Length of Visible Light 11h 53m
Length of Day
11h 06m
Waning Gibbous, 53% of the Moon is Illuminated
Nov 6
Waning Gibbous
Nov 6
Last Quarter
Nov 13
New
Nov 20
First Quarter
Nov 28
Full

Hourly Weather History & Observations

Time (EST) Temp. Heat Index Dew Point Humidity Pressure Visibility Wind Dir Wind Speed Gust Speed Precip Events Conditions
12:53 AM 72.0 °F - 64.9 °F 78% 29.94 in 10.0 mi Calm Calm - N/A   Mostly Cloudy
1:53 AM 72.0 °F - 64.9 °F 78% 29.94 in 10.0 mi North 4.6 mph - N/A   Partly Cloudy
2:53 AM 72.0 °F - 64.0 °F 76% 29.92 in 10.0 mi Calm Calm - N/A   Scattered Clouds
3:53 AM 71.1 °F - 64.9 °F 81% 29.91 in 10.0 mi Calm Calm - N/A   Clear
4:53 AM 71.1 °F - 64.9 °F 81% 29.92 in 10.0 mi North 3.5 mph - N/A   Clear
5:53 AM 71.1 °F - 64.9 °F 81% 29.92 in 10.0 mi Calm Calm - N/A   Clear
6:53 AM 70.0 °F - 66.0 °F 87% 29.94 in 10.0 mi Calm Calm - N/A   Clear
7:53 AM 73.9 °F - 66.0 °F 76% 29.96 in 10.0 mi NNE 3.5 mph - N/A   Clear
8:53 AM 75.9 °F - 64.9 °F 69% 29.96 in 10.0 mi NNE 4.6 mph - N/A   Clear
9:53 AM 77.0 °F - 66.0 °F 69% 29.97 in 10.0 mi Calm Calm - N/A   Clear
10:53 AM 79.0 °F - 66.0 °F 64% 29.96 in 10.0 mi NW 4.6 mph - N/A   Partly Cloudy
11:53 AM 77.0 °F - 66.0 °F 69% 29.94 in 10.0 mi SW 6.9 mph - N/A   Partly Cloudy
12:53 PM 77.0 °F - 66.9 °F 71% 29.91 in 10.0 mi SSW 5.8 mph - N/A   Clear
1:53 PM 78.1 °F - 68.0 °F 71% 29.89 in 10.0 mi SW 6.9 mph - N/A   Clear
2:53 PM 78.1 °F - 68.0 °F 71% 29.88 in 10.0 mi SW 6.9 mph - N/A   Clear
3:53 PM 80.1 °F 82.7 °F 68.0 °F 67% 29.88 in 10.0 mi WNW 8.1 mph - N/A   Clear
4:53 PM 79.0 °F - 66.9 °F 66% 29.88 in 10.0 mi West 6.9 mph - N/A   Clear
5:53 PM 77.0 °F - 66.9 °F 71% 29.89 in 10.0 mi West 4.6 mph - N/A   Clear
6:53 PM 75.9 °F - 68.0 °F 76% 29.90 in 10.0 mi West 6.9 mph - N/A   Clear
7:53 PM 75.9 °F - 69.1 °F 79% 29.91 in 10.0 mi West 4.6 mph - N/A   Clear
8:53 PM 75.9 °F - 68.0 °F 76% 29.92 in 10.0 mi WNW 5.8 mph - N/A   Clear
9:53 PM 75.9 °F - 70.0 °F 82% 29.92 in 10.0 mi NW 6.9 mph - N/A   Clear
10:53 PM 73.9 °F - 68.0 °F 82% 29.91 in 10.0 mi West 3.5 mph - N/A   Clear
11:53 PM 73.9 °F - 69.1 °F 85% 29.91 in 10.0 mi WNW 5.8 mph - N/A   Clear